Chino, CA

11:16 PM PDT on October 20, 2017 (GMT -0700)
Chino

Weather History for KCNO - August, 2013

Change the Weather History Date:

Thursday, August 29, 2013

  Actual Average Record
Temperature  
Mean Temperature 86 °F -  
Max Temperature 105 °F 91 °F 109 °F (1998)
Min Temperature 68 °F 58 °F 53 °F (1999)
Cooling Degree Days 21    
Growing Degree Days 36 (Base 50)    
Moisture  
Dew Point 54 °F    
Average Humidity 38    
Maximum Humidity 61    
Minimum Humidity 21    
Precipitation  
Precipitation 0.00 in - - ()
Sea Level Pressure  
Sea Level Pressure 29.90 in    
Wind  
Wind Speed 3 mph (WSW)    
Max Wind Speed 15 mph    
Max Gust Speed 23 mph    
Visibility 9 miles    
Events      
Averages and records for this station are not official NWS values.
T = Trace of Precipitation, MM = Missing Value Source: NWS Daily Summary

Daily Weather History Graph

Daily Weather History Graph

Search for Another Location

Airport or City:

Trip Planner

Search our weather history database for the weather conditions in past years. The results will help you decide how hot, cold, wet, or windy it might be!

Date:

Astronomy

Aug. 29, 2013 Rise Set
Actual Time 6:22 AM PDT 7:19 PM PDT
Civil Twilight 5:56 AM PDT 7:45 PM PDT
Nautical Twilight 5:26 AM PDT 8:15 PM PDT
Astronomical Twilight 4:54 AM PDT 8:46 PM PDT
Moon 12:25 AM PDT (8/29) 2:44 PM PDT (8/29)
Length of Visible Light 13h 48m
Length of Day
12h 57m
Last Quarter, 37% of the Moon is Illuminated
Aug 29
Last Quarter
Sep 5
New
Sep 12
First Quarter
Sep 19
Full
Sep 26
Last Quarter

Hourly Weather History & Observations

Time (PDT) Temp. Heat Index Dew Point Humidity Pressure Visibility Wind Dir Wind Speed Gust Speed Precip Events Conditions
12:53 AM 73.0 °F - 51.1 °F 46% 29.88 in 8.0 mi SSW 3.5 mph - N/A   Clear
1:53 AM 72.0 °F - 52.0 °F 49% 29.89 in 9.0 mi Calm Calm - N/A   Clear
2:53 AM 69.1 °F - 54.0 °F 58% 29.88 in 7.0 mi NNW 3.5 mph - N/A   Clear
3:53 AM 70.0 °F - 53.1 °F 55% 29.88 in 8.0 mi Calm Calm - N/A   Clear
4:53 AM 69.1 °F - 55.0 °F 61% 29.90 in 7.0 mi ENE 3.5 mph - N/A   Clear
5:53 AM 68.0 °F - 54.0 °F 61% 29.89 in 3.0 mi Calm Calm - N/A   Haze
6:29 AM 69.8 °F - 53.6 °F 56% 29.93 in 1.8 mi Calm Calm - N/A   Haze
6:41 AM 69.8 °F - 53.6 °F 56% 29.93 in 10.0 mi Calm Calm - N/A   Clear
6:53 AM 70.0 °F - 55.0 °F 59% 29.92 in 10.0 mi Calm Calm - N/A   Clear
7:53 AM 79.0 °F - 54.0 °F 42% 29.92 in 10.0 mi Calm Calm - N/A   Scattered Clouds
8:53 AM 82.9 °F - 52.0 °F 34% 29.92 in 10.0 mi Calm Calm - N/A   Partly Cloudy
9:53 AM 90.0 °F 89.1 °F 59.0 °F 35% 29.93 in 10.0 mi Calm Calm - N/A   Scattered Clouds
10:53 AM 95.0 °F 95.2 °F 61.0 °F 32% 29.92 in 10.0 mi Calm Calm - N/A   Scattered Clouds
11:53 AM 99.0 °F 98.6 °F 59.0 °F 26% 29.90 in 10.0 mi Calm Calm - N/A   Scattered Clouds
12:53 PM 100.9 °F 99.6 °F 55.9 °F 22% 29.88 in 10.0 mi Calm Calm - N/A   Scattered Clouds
1:53 PM 104.0 °F 104.6 °F 59.0 °F 23% 29.87 in 10.0 mi SW 13.8 mph 19.6 mph N/A   Mostly Cloudy
2:06 PM 102.2 °F 101.4 °F 57.2 °F 22% 29.89 in 10.0 mi SW 11.5 mph - N/A   Mostly Cloudy
2:53 PM 102.9 °F 103.0 °F 57.9 °F 23% 29.85 in 10.0 mi SW 15.0 mph 23.0 mph N/A   Mostly Cloudy
3:53 PM 100.9 °F 99.1 °F 54.0 °F 21% 29.86 in 10.0 mi SW 15.0 mph - N/A   Mostly Cloudy
4:53 PM 98.1 °F 95.7 °F 53.1 °F 22% 29.86 in 10.0 mi SW 11.5 mph - N/A   Mostly Cloudy
5:53 PM 97.0 °F - 51.1 °F 21% 29.87 in 10.0 mi West 9.2 mph - N/A   Mostly Cloudy
6:53 PM 91.9 °F 89.5 °F 54.0 °F 27% 29.87 in 10.0 mi West 11.5 mph - N/A   Mostly Cloudy
7:53 PM 88.0 °F - 50.0 °F 27% 29.90 in 10.0 mi West 10.4 mph - N/A   Mostly Cloudy
8:53 PM 86.0 °F - 48.9 °F 28% 29.91 in 10.0 mi West 6.9 mph - N/A   Clear
9:53 PM 84.0 °F - 51.1 °F 32% 29.93 in 10.0 mi Calm Calm - N/A   Clear
10:53 PM 81.0 °F 80.7 °F 55.0 °F 41% 29.94 in 9.0 mi ENE 3.5 mph - N/A   Clear
11:53 PM 80.1 °F 80.1 °F 55.0 °F 42% 29.94 in 10.0 mi Calm Calm - N/A   Clear